{"data":{"norad_id":65139,"epoch":"2026-09-21T14:08:58.016832Z","epoch_age_seconds":71029,"freshness":"FRESH","line1":"1 65139U 25171H   26264.58956038  .00002179  00000+0  31477-3 0  9997","line2":"2 65139  51.9027   4.3062 0000459  94.7398 265.3617 14.79932903 62008","mean_motion":14.79932903,"eccentricity":4.59e-5,"inclination_deg":51.9027,"raan_deg":4.3062,"arg_perigee_deg":94.7398,"mean_anomaly_deg":265.3617,"bstar":0.00031477,"rev_number":6200,"period_min":97.301708549148,"perigee_km":629.21428319224,"apogee_km":629.85758756771,"semimajor_km":7007.67293538,"source":"CELESTRAK","updated_at":"2026-09-22T09:00:30.151086Z"}}